| time (UTC) | temp F | wind direction | speed MPH | gust MPH | rain 1hr in | rain 24hr in | rain mn in | humidity % | barometer mb |
| 20260905081555 | 56 | 51 | 0.0 | 2.0 | 0.00 | 0.35 | 0.00 | 93 | 997.7 |
| 20260905074549 | 54 | 150 | 0.0 | 9.0 | 0.00 | 0.36 | 0.00 | 98 | 997.4 |
| 20260905073046 | 53 | 151 | 0.0 | 9.0 | 0.00 | 0.36 | 0.00 | 99 | 997.2 |
| 20260905071544 | 53 | 152 | 0.0 | 9.0 | 0.00 | 0.36 | 0.00 | 99 | 997.1 |
| 20260905070046 | 52 | 98 | 0.0 | 9.0 | 0.00 | 0.39 | 0.00 | 99 | 997.0 |
| 20260905064543 | 52 | 46 | 0.0 | 9.0 | 0.00 | 0.39 | 0.00 | 99 | 996.8 |
| 20260905063041 | 51 | 46 | 0.0 | 9.0 | 0.00 | 0.39 | 0.00 | 99 | 996.8 |
| 20260905061536 | 51 | 91 | 0.0 | 9.0 | 0.00 | 0.39 | 0.00 | 99 | 996.6 |
| 20260905060033 | 51 | 134 | 0.0 | 9.0 | 0.00 | 0.39 | 0.00 | 99 | 996.4 |
| 20260905054535 | 50 | 134 | 0.0 | 9.0 | 0.00 | 0.39 | 0.00 | 99 | 996.2 |
| 20260905053029 | 50 | 134 | 0.0 | 9.0 | 0.00 | 0.39 | 0.00 | 99 | 996.1 |
| 20260905051527 | 50 | 134 | 0.0 | 9.0 | 0.00 | 0.39 | 0.00 | 99 | 996.1 |
| 20260905050026 | 49 | 134 | 0.0 | 9.0 | 0.00 | 0.39 | 0.00 | 99 | 995.9 |
| 20260905044527 | 49 | 134 | 0.0 | 9.0 | 0.00 | 0.39 | 0.00 | 99 | 996.0 |
| 20260905043024 | 49 | 134 | 0.0 | 9.0 | 0.00 | 0.39 | 0.00 | 99 | 995.9 |
| 20260905041522 | 49 | 134 | 0.0 | 9.0 | 0.00 | 0.39 | 0.00 | 99 | 995.8 |
| 20260905040031 | 49 | 134 | 0.0 | 9.0 | 0.00 | 0.39 | 0.00 | 99 | 995.8 |
| 20260905034528 | 49 | 134 | 0.0 | 9.0 | 0.00 | 0.39 | 0.00 | 99 | 995.6 |
| 20260905033019 | 49 | 134 | 0.0 | 9.0 | 0.00 | 0.39 | 0.00 | 99 | 995.4 |
| 20260905031517 | 49 | 134 | 0.0 | 9.0 | 0.00 | 0.39 | 0.00 | 99 | 995.2 |
| 20260905030016 | 49 | 134 | 0.0 | 9.0 | 0.00 | 0.39 | 0.00 | 99 | 995.1 |
| 20260905024517 | 49 | 134 | 0.0 | 9.0 | 0.00 | 0.39 | 0.00 | 99 | 995.1 |
| 20260905023014 | 49 | 134 | 0.0 | 9.0 | 0.00 | 0.39 | 0.00 | 99 | 995.0 |
| 20260905021513 | 49 | 134 | 0.0 | 9.0 | 0.00 | 0.39 | 0.00 | 99 | 994.9 |
| 20260905020011 | 49 | 134 | 0.0 | 9.0 | 0.00 | 0.39 | 0.00 | 99 | 994.7 |
| 20260905014509 | 49 | 134 | 0.0 | 9.0 | 0.00 | 0.39 | 0.00 | 99 | 994.7 |
| 20260905013009 | 49 | 134 | 0.0 | 9.0 | 0.00 | 0.39 | 0.00 | 99 | 994.7 |
| 20260905011509 | 49 | 134 | 0.0 | 9.0 | 0.00 | 0.39 | 0.00 | 99 | 994.5 |
| 20260905010006 | 48 | 134 | 0.0 | 9.0 | 0.00 | 0.39 | 0.00 | 99 | 994.4 |
| 20260905004506 | 48 | 134 | 0.0 | 9.0 | 0.00 | 0.39 | 0.00 | 99 | 994.3 |
| 20260905003007 | 48 | 134 | 0.0 | 9.0 | 0.00 | 0.39 | 0.00 | 98 | 994.3 |
| 20260905001507 | 48 | 134 | 0.0 | 9.0 | 0.00 | 0.39 | 0.00 | 98 | 994.3 |
| 20260905000003 | 48 | 134 | 0.0 | 9.0 | 0.00 | 0.39 | 0.00 | 98 | 994.2 |
| 20260904234502 | 48 | 134 | 0.0 | 9.0 | 0.00 | 0.39 | 0.00 | 98 | 994.2 |
| 20260904233101 | 48 | 134 | 0.0 | 9.0 | 0.00 | 0.39 | 0.00 | 98 | 994.1 |
| 20260904231558 | 48 | 143 | 0.0 | 9.0 | 0.00 | 0.39 | 0.00 | 98 | 994.2 |
| 20260904230127 | 49 | 143 | 0.0 | 9.0 | 0.00 | 0.39 | 0.00 | 98 | 994.1 |
| 20260904224600 | 49 | 153 | 1.0 | 9.0 | 0.00 | 0.39 | 0.00 | 98 | 994.1 |
| 20260904223052 | 49 | 131 | 0.0 | 9.0 | 0.00 | 0.39 | 0.00 | 98 | 994.0 |
| 20260904221551 | 49 | 145 | 0.0 | 9.0 | 0.00 | 0.39 | 0.00 | 98 | 994.0 |
| 20260904220050 | 49 | 161 | 0.0 | 9.0 | 0.00 | 0.39 | 0.39 | 98 | 994.0 |
| 20260904214551 | 50 | 152 | 0.0 | 9.0 | 0.00 | 0.39 | 0.39 | 98 | 994.0 |
| 20260904213050 | 50 | 140 | 0.0 | 9.0 | 0.00 | 0.39 | 0.39 | 98 | 994.1 |
| 20260904211547 | 50 | 182 | 0.0 | 9.0 | 0.00 | 0.39 | 0.39 | 98 | 994.1 |
| 20260904210047 | 50 | 182 | 0.0 | 9.0 | 0.00 | 0.39 | 0.39 | 98 | 993.9 |
| 20260904204547 | 50 | 138 | 0.0 | 9.0 | 0.00 | 0.39 | 0.39 | 98 | 993.9 |
| 20260904203045 | 50 | 141 | 0.0 | 9.0 | 0.00 | 0.39 | 0.39 | 98 | 993.8 |
| 20260904201545 | 50 | 139 | 0.0 | 9.0 | 0.00 | 0.39 | 0.39 | 98 | 993.7 |
| 20260904200044 | 50 | 142 | 0.0 | 9.0 | 0.00 | 0.39 | 0.39 | 98 | 993.8 |
| 20260904194544 | 50 | 144 | 0.0 | 9.0 | 0.00 | 0.39 | 0.39 | 98 | 993.8 |
| 20260904193043 | 50 | 148 | 0.0 | 9.0 | 0.00 | 0.39 | 0.39 | 98 | 993.8 |
| 20260904191542 | 50 | 140 | 0.0 | 9.0 | 0.00 | 0.39 | 0.39 | 98 | 993.9 |
| 20260904190042 | 50 | 136 | 0.0 | 9.0 | 0.00 | 0.39 | 0.39 | 98 | 993.9 |
| 20260904184541 | 50 | 142 | 0.0 | 9.0 | 0.00 | 0.39 | 0.39 | 98 | 994.0 |
| 20260904183040 | 50 | 152 | 0.0 | 9.0 | 0.00 | 0.39 | 0.39 | 98 | 993.9 |
| 20260904181541 | 50 | 360 | 0.0 | 9.0 | 0.00 | 0.39 | 0.39 | 98 | 993.8 |
| 20260904180040 | 51 | 145 | 0.0 | 9.0 | 0.00 | 0.39 | 0.39 | 98 | 993.6 |
| 20260904174539 | 51 | 142 | 0.0 | 9.0 | 0.00 | 0.39 | 0.39 | 97 | 993.6 |
| 20260904173040 | 51 | 182 | 0.0 | 9.0 | 0.00 | 0.39 | 0.39 | 97 | 993.6 |
| 20260904171537 | 52 | 146 | 1.0 | 9.0 | 0.00 | 0.39 | 0.39 | 97 | 993.6 |
| 20260904170037 | 52 | 116 | 1.0 | 8.0 | 0.00 | 0.39 | 0.39 | 97 | 993.4 |
| 20260904164536 | 54 | 142 | 2.0 | 8.0 | 0.00 | 0.39 | 0.39 | 96 | 993.3 |
| 20260904163036 | 55 | 82 | 1.0 | 8.0 | 0.00 | 0.39 | 0.39 | 97 | 993.1 |
| 20260904161540 | 56 | 41 | 1.0 | 10.0 | 0.00 | 0.39 | 0.39 | 97 | 992.9 |
| 20260904160035 | 56 | 41 | 0.0 | 10.0 | 0.01 | 0.39 | 0.39 | 97 | 992.9 |
| 20260904154534 | 56 | 335 | 2.0 | 10.0 | 0.01 | 0.39 | 0.39 | 97 | 992.9 |
| 20260904153038 | 56 | 70 | 1.0 | 6.0 | 0.03 | 0.39 | 0.39 | 97 | 993.0 |
| 20260904151531 | 56 | 354 | 0.0 | 6.0 | 0.05 | 0.39 | 0.39 | 97 | 993.0 |
| 20260904150030 | 56 | 323 | 1.0 | 6.0 | 0.04 | 0.38 | 0.38 | 96 | 993.1 |
| 20260904144530 | 57 | 339 | 0.0 | 6.0 | 0.04 | 0.38 | 0.38 | 96 | 993.4 |
| 20260904143028 | 57 | 341 | 1.0 | 6.0 | 0.02 | 0.35 | 0.35 | 96 | 993.5 |
| 20260904141525 | 58 | 336 | 0.0 | 5.0 | 0.00 | 0.34 | 0.34 | 97 | 993.5 |
| 20260904140023 | 58 | 28 | 0.0 | 5.0 | 0.01 | 0.34 | 0.34 | 98 | 993.8 |
| 20260904134526 | 58 | 10 | 0.0 | 5.0 | 0.01 | 0.34 | 0.34 | 98 | 993.9 |
| 20260904133018 | 57 | 309 | 0.0 | 5.0 | 0.01 | 0.34 | 0.34 | 98 | 994.0 |
| 20260904131516 | 57 | 312 | 0.0 | 5.0 | 0.01 | 0.34 | 0.34 | 98 | 994.2 |
| 20260904130035 | 57 | 312 | 0.0 | 5.0 | 0.01 | 0.33 | 0.33 | 98 | 994.4 |
| 20260904124512 | 56 | 312 | 0.0 | 5.0 | 0.02 | 0.33 | 0.33 | 98 | 994.5 |
| 20260904123019 | 55 | 312 | 0.0 | 5.0 | 0.07 | 0.33 | 0.33 | 98 | 994.6 |
| 20260904121508 | 55 | 312 | 0.0 | 5.0 | 0.10 | 0.33 | 0.33 | 98 | 994.7 |
| 20260904120008 | 54 | 312 | 2.0 | 5.0 | 0.13 | 0.32 | 0.32 | 98 | 994.7 |
| 20260904114505 | 54 | 314 | 1.0 | 5.0 | 0.15 | 0.31 | 0.31 | 97 | 994.9 |
| 20260904113003 | 54 | 290 | 1.0 | 5.0 | 0.17 | 0.26 | 0.26 | 97 | 995.2 |
| 20260904111501 | 54 | 293 | 1.0 | 5.0 | 0.15 | 0.23 | 0.23 | 97 | 995.3 |
| 20260904110100 | 55 | 298 | 1.0 | 5.0 | 0.14 | 0.20 | 0.20 | 97 | 995.6 |
| 20260904104559 | 55 | 177 | 0.0 | 5.0 | 0.11 | 0.16 | 0.16 | 97 | 995.8 |
| 20260904103055 | 55 | 174 | 0.0 | 5.0 | 0.04 | 0.09 | 0.09 | 96 | 996.1 |
| 20260904101554 | 55 | 297 | 0.0 | 2.0 | 0.04 | 0.08 | 0.08 | 96 | 996.1 |
| 20260904100055 | 55 | 301 | 0.0 | 3.0 | 0.02 | 0.06 | 0.06 | 95 | 996.3 |
| 20260904094551 | 55 | 207 | 0.0 | 4.0 | 0.01 | 0.05 | 0.05 | 94 | 996.5 |
| 20260904093050 | 55 | 330 | 1.0 | 4.0 | 0.01 | 0.05 | 0.05 | 93 | 996.5 |
| 20260904091552 | 55 | 298 | 0.0 | 3.0 | 0.00 | 0.04 | 0.04 | 93 | 996.8 |
| 20260904090050 | 54 | 298 | 0.0 | 2.0 | 0.00 | 0.04 | 0.04 | 94 | 996.8 |
| 20260904084544 | 54 | 298 | 0.0 | 3.0 | 0.01 | 0.04 | 0.04 | 95 | 997.0 |
| 20260904083041 | 53 | 298 | 0.0 | 1.0 | 0.01 | 0.04 | 0.04 | 95 | 997.1 |